Regional Weather Roundup
Issued by NWS

Home | Current Version | Previous Version | Graphics & Text | Print | Product List | Glossary On
Versions: 1 2 3 4 5 6 7 8 9 10 11 12 13 14 15 16 17 18 19 20 21 22 23 24 25 26 27 28 29 30 31 32 33 34 35 36 37 38 39 40 41 42 43 44 45 46 47 48 49 50
179
ASUS45 KBOI 280210
RWRID

IDAHO REGIONAL WEATHER ROUNDUP
NATIONAL WEATHER SERVICE BOISE ID
800 PM MDT THU APR 27 2017

NOTE: "FAIR" INDICATES FEW OR NO CLOUDS BELOW 12000 FEET
WITH NO SIGNIFICANT WEATHER AND/OR OBSTRUCTIONS TO VISIBILITY

IDZ012-014-280300-
SOUTHWEST IDAHO


CITY           SKY/WX    TMP DP  RH WIND       PRES   REMARKS
BOISE          CLEAR     49  24  37 N13       29.92S
CALDWELL       CLEAR     49  29  46 W17       29.94S
MOUNTAIN HOME  PTCLDY    49  24  37 NW18      29.91S
$$

IDZ016-017-280300-
SOUTHCENTRAL IDAHO


CITY           SKY/WX    TMP DP  RH WIND       PRES   REMARKS
BURLEY         CLEAR     42  18  37 W22G36    29.84R
JEROME         CLEAR     43  20  39 W23G31    29.86F
TWIN FALLS     CLEAR     41  22  46 W23G35    29.87S
$$

IDZ019>023-280300-
SOUTHEAST IDAHO


CITY           SKY/WX    TMP DP  RH WIND       PRES   REMARKS
IDAHO FALLS    CLOUDY    38  33  82 S9        29.81R WCI  31
POCATELLO      LGT RAIN  42  26  53 W25       29.82R
REXBURG        MOCLDY    36  33  89 SW13      29.78R WCI  27
$$

IDZ006-010-011-018-031-032-280300-
CENTRAL IDAHO MOUNTAINS


CITY           SKY/WX    TMP DP  RH WIND       PRES   REMARKS
MCCALL         PTCLDY    35  22  58 CALM      29.88F
STANLEY          N/A     30  19  63 N8        29.85R WCI  22
SALMON         MOCLDY    43  19  39 NW7       29.83R
CHALLIS        CLOUDY    40  20  44 NW13      29.82R WCI  32
$$

IDZ002-004-006-007-026-280300-
NORTHERN IDAHO


CITY           SKY/WX    TMP DP  RH WIND       PRES   REMARKS
LEWISTON       CLOUDY    50  34  54 S5        29.93S
LOWELL           N/A     43  40  89 CALM      30.00S
COEUR D`ALENE  CLOUDY    45  37  73 S7        29.90S
MULLAN PASS    CLOUDY    27  27 100 VRB5      29.85R WCI  22
$$




USA.gov is the U.S. government's official web portal to all federal, state and local government web resources and services.